Weather History for Asheboro, NC

Change the Weather History Date:

Wednesday, May 8, 2013

  Actual Average Record
Temperature  
Mean Temperature 60 °F -  
Max Temperature 68 °F 75 °F 96 °F (1940)
Min Temperature 52 °F 52 °F 33 °F (1989)
Degree Days  
Heating Degree Days 5    
Growing Degree Days 10 (Base 50)    
Moisture  
Dew Point 56 °F    
Average Humidity 87    
Maximum Humidity 100    
Minimum Humidity 63    
Precipitation  
Precipitation 0.04 in - - ()
Sea Level Pressure  
Sea Level Pressure 30.00 in    
Wind  
Wind Speed 1 mph (SSW)    
Max Wind Speed 9 mph    
Max Gust Speed 21 mph    
Visibility 10 miles    
Events Rain    
Averages and records for this station are not official NWS values.
T = Trace of Precipitation, MM = Missing Value Source: NWS Daily Summary

Daily Weather History Graph

Daily Weather History Graph

Search for Another Location

Airport:

Trip Planner

Search our weather history database for the weather conditions in past years. The results will help you decide how hot, cold, wet, or windy it might be!

Date:

Astronomy

May. 08, 2013 Rise Set
Actual Time 6:20 AM EDT 8:12 PM EDT
Civil Twilight 5:52 AM EDT 8:40 PM EDT
Nautical Twilight 5:18 AM EDT 9:13 PM EDT
Astronomical Twilight 4:42 AM EDT 9:50 PM EDT
Moon 5:24 AM EDT (5/8) 7:10 PM EDT (5/8)
Length of Visible Light 14h 47m
Length of Day
13h 51m
Waning Crescent, 2% of the Moon is Illuminated
May 8
Waning Crescent
May 9
New
May 18
First Quarter
May 25
Full
May 31
Last Quarter

Hourly Weather History & Observations

Time (EDT) Temp. Dew Point Humidity Pressure Visibility Wind Dir Wind Speed Gust Speed Precip Events Conditions
12:15 AM 53.2 °F 53.2 °F 100% 29.98 in 10.0 mi Calm Calm - N/A   Overcast
12:35 AM 53.6 °F 53.6 °F 100% 29.98 in 10.0 mi Calm Calm - N/A   Overcast
12:55 AM 53.6 °F 53.6 °F 100% 29.98 in 10.0 mi Calm Calm - N/A Rain Light Rain
1:15 AM 53.1 °F 53.1 °F 100% 29.98 in 10.0 mi Calm Calm - N/A   Light Drizzle
1:35 AM 53.6 °F 53.6 °F 100% 29.97 in 10.0 mi Calm Calm - N/A   Overcast
1:55 AM 52.9 °F 52.9 °F 100% 29.97 in 10.0 mi Calm Calm - N/A Rain Light Rain
2:15 AM 52.9 °F 52.9 °F 100% 29.96 in 10.0 mi Calm Calm - N/A Rain Light Rain
2:35 AM 53.1 °F 53.1 °F 100% 29.96 in 10.0 mi Calm Calm - N/A Rain Light Rain
2:55 AM 53.4 °F 53.4 °F 100% 29.96 in 10.0 mi Calm Calm - N/A   Light Drizzle
3:15 AM 52.9 °F 52.9 °F 100% 29.96 in 10.0 mi Calm Calm - 0.01 in Rain Rain
3:35 AM 53.1 °F 53.1 °F 100% 29.96 in 10.0 mi Calm Calm - 0.01 in Rain Light Rain
3:55 AM 53.1 °F 53.1 °F 100% 29.96 in 10.0 mi Calm Calm - 0.01 in   Overcast
4:15 AM 52.7 °F 52.7 °F 100% 29.96 in 10.0 mi Calm Calm - N/A   Overcast
4:35 AM 53.1 °F 53.1 °F 100% 29.97 in 10.0 mi Calm Calm - N/A   Overcast
4:55 AM 52.9 °F 52.7 °F 99% 29.97 in 10.0 mi Calm Calm - N/A   Overcast
5:15 AM 52.7 °F 52.7 °F 100% 29.97 in 10.0 mi Calm Calm - 0.01 in Rain Light Rain
5:35 AM 52.7 °F 52.7 °F 100% 29.97 in 10.0 mi Calm Calm - 0.01 in   Light Drizzle
5:55 AM 52.9 °F 52.9 °F 100% 29.97 in 10.0 mi Calm Calm - 0.01 in   Overcast
6:15 AM 52.7 °F 52.7 °F 100% 29.98 in 7.0 mi Calm Calm - N/A   Overcast
6:35 AM 52.3 °F 52.3 °F 100% 29.98 in 5.0 mi Calm Calm - N/A   Mostly Cloudy
6:55 AM 52.9 °F 52.9 °F 100% 29.99 in 10.0 mi Calm Calm - N/A   Mostly Cloudy
7:15 AM 52.9 °F 52.9 °F 100% 30.00 in 10.0 mi Calm Calm - N/A   Scattered Clouds
7:35 AM 53.6 °F 53.6 °F 100% 30.00 in 10.0 mi Calm Calm - N/A   Clear
7:55 AM 54.0 °F 54.0 °F 100% 30.01 in 10.0 mi Calm Calm - N/A   Clear
8:15 AM 54.5 °F 54.0 °F 98% 30.01 in 10.0 mi Calm Calm - N/A   Clear
8:35 AM 55.2 °F 54.3 °F 97% 30.01 in 10.0 mi Calm Calm - N/A   Clear
8:55 AM 56.5 °F 54.1 °F 92% 30.02 in 10.0 mi South 4.6 mph - N/A   Clear
9:15 AM 57.7 °F 53.6 °F 86% 30.02 in 10.0 mi South 4.6 mph - N/A   Clear
9:35 AM 58.3 °F 54.0 °F 86% 30.02 in 10.0 mi SW 4.6 mph - N/A   Clear
9:55 AM 58.5 °F 54.5 °F 87% 30.03 in 10.0 mi SW 3.5 mph - N/A   Clear
10:15 AM 58.8 °F 55.0 °F 87% 30.03 in 10.0 mi SSW 3.5 mph - N/A   Scattered Clouds
10:35 AM 59.5 °F 55.2 °F 86% 30.03 in 10.0 mi Calm Calm - N/A   Mostly Cloudy
10:55 AM 60.1 °F 55.2 °F 84% 30.03 in 10.0 mi Calm Calm - N/A   Overcast
11:15 AM 61.9 °F 55.4 °F 79% 30.04 in 10.0 mi Calm Calm - N/A   Mostly Cloudy
11:35 AM 62.8 °F 54.3 °F 74% 30.03 in 10.0 mi SW 4.6 mph - N/A   Mostly Cloudy
11:55 AM 63.0 °F 54.0 °F 72% 30.03 in 10.0 mi SSW 6.9 mph - N/A   Mostly Cloudy
12:15 PM 63.0 °F 54.0 °F 72% 30.03 in 10.0 mi South 5.8 mph - N/A   Mostly Cloudy
12:35 PM 63.3 °F 55.2 °F 75% 30.02 in 10.0 mi South 4.6 mph - N/A   Mostly Cloudy
12:55 PM 64.6 °F 55.0 °F 71% 30.02 in 10.0 mi South 6.9 mph - N/A   Scattered Clouds
12:56 PM 64.4 °F 55.4 °F 73% 30.02 in 10.0 mi South 6.9 mph - N/A   Scattered Clouds
1:15 PM 65.1 °F 54.0 °F 67% 30.02 in 10.0 mi SSW 8.1 mph - N/A   Scattered Clouds
1:35 PM 65.3 °F 53.6 °F 66% 30.01 in 10.0 mi SSW 8.1 mph - N/A   Clear
1:55 PM 66.4 °F 54.3 °F 65% 30.00 in 10.0 mi WSW 8.1 mph - N/A   Clear
2:15 PM 67.3 °F 54.7 °F 64% 30.00 in 10.0 mi SSE 9.2 mph - N/A   Scattered Clouds
2:35 PM 68.0 °F 55.0 °F 63% 30.00 in 10.0 mi SSW 6.9 mph - N/A   Mostly Cloudy
2:55 PM 67.3 °F 55.2 °F 65% 29.99 in 10.0 mi Calm Calm - N/A   Overcast
3:15 PM 66.0 °F 57.6 °F 74% 29.99 in 10.0 mi Calm Calm - N/A   Mostly Cloudy
3:35 PM 68.2 °F 55.9 °F 65% 29.98 in 10.0 mi SW 4.6 mph - N/A   Scattered Clouds
3:55 PM 64.4 °F 59.5 °F 84% 29.99 in 5.0 mi SSW 8.1 mph 20.7 mph 0.02 in Rain Heavy Rain
4:35 PM 66.2 °F 59.9 °F 80% 29.98 in 10.0 mi SW 4.6 mph - N/A   Scattered Clouds
4:55 PM 66.9 °F 60.1 °F 79% 29.97 in 10.0 mi South 3.5 mph - N/A   Scattered Clouds
5:15 PM 67.5 °F 59.5 °F 76% 29.97 in 10.0 mi Calm Calm - N/A   Scattered Clouds
5:35 PM 67.6 °F 59.7 °F 76% 29.97 in 10.0 mi Calm Calm - N/A   Scattered Clouds
5:55 PM 68.0 °F 59.7 °F 75% 29.97 in 10.0 mi SSW 3.5 mph - N/A   Scattered Clouds
6:15 PM 68.4 °F 59.9 °F 74% 29.97 in 10.0 mi Calm Calm - N/A   Scattered Clouds
6:35 PM 68.0 °F 60.6 °F 77% 29.97 in 10.0 mi Calm Calm - N/A   Mostly Cloudy
6:55 PM 68.2 °F 60.8 °F 77% 29.98 in 10.0 mi Calm Calm - N/A   Mostly Cloudy
7:15 PM 68.0 °F 62.1 °F 81% 29.98 in 10.0 mi Calm Calm - N/A   Mostly Cloudy
7:35 PM 65.7 °F 63.3 °F 92% 29.98 in 10.0 mi Calm Calm - N/A   Overcast
7:55 PM 64.4 °F 62.8 °F 94% 29.99 in 10.0 mi Calm Calm - N/A   Overcast
8:15 PM 64.2 °F 62.4 °F 94% 30.00 in 10.0 mi Calm Calm - N/A   Overcast
8:35 PM 63.7 °F 61.9 °F 94% 30.01 in 10.0 mi Calm Calm - N/A   Overcast
8:55 PM 64.9 °F 59.2 °F 82% 30.02 in 10.0 mi North 6.9 mph - N/A   Overcast
9:15 PM 64.4 °F 58.1 °F 80% 30.03 in 10.0 mi Calm Calm - N/A   Mostly Cloudy
9:35 PM 63.5 °F 58.1 °F 83% 30.04 in 10.0 mi North 3.5 mph - N/A   Overcast
9:55 PM 62.6 °F 58.3 °F 86% 30.04 in 10.0 mi Calm Calm - N/A Rain Light Rain
10:15 PM 61.7 °F 58.8 °F 90% 30.04 in 10.0 mi Calm Calm - N/A   Mostly Cloudy
10:35 PM 61.2 °F 58.6 °F 91% 30.04 in 10.0 mi Calm Calm - N/A   Overcast
11:15 PM 60.4 °F 58.5 °F 93% 30.04 in 10.0 mi Calm Calm - N/A   Overcast
11:35 PM 59.4 °F 58.5 °F 97% 30.04 in 10.0 mi Calm Calm - N/A   Overcast